| time (UTC) | temp F | wind direction | speed MPH | gust MPH | rain 1hr in | rain 24hr in | rain mn in | humidity % | barometer mb |
| 20260901114904 | 65 | 331 | 0.0 | 2.0 | 0.00 | 0.02 | 0.00 | 98 | 1012.1 |
| 20260901114404 | 65 | 244 | 0.0 | 2.0 | 0.00 | 0.02 | 0.00 | 98 | 1012.0 |
| 20260901113905 | 65 | 302 | 0.0 | 2.0 | 0.00 | 0.02 | 0.00 | 98 | 1012.0 |
| 20260901113403 | 65 | 316 | 0.0 | 3.0 | 0.00 | 0.02 | 0.00 | 98 | 1012.0 |
| 20260901112905 | 65 | 344 | 1.0 | 3.0 | 0.00 | 0.02 | 0.00 | 98 | 1012.0 |
| 20260901112405 | 65 | 355 | 0.0 | 2.0 | 0.00 | 0.02 | 0.00 | 98 | 1012.0 |
| 20260901112137 | 65 | 2 | 0.0 | 2.0 | 0.00 | 0.02 | 0.00 | 98 | 1012.0 |
| 20260901111400 | 65 | 305 | 0.0 | 3.0 | 0.00 | 0.02 | 0.00 | 98 | 1011.9 |
| 20260901110903 | 65 | 306 | 0.0 | 3.0 | 0.00 | 0.02 | 0.00 | 98 | 1011.9 |
| 20260901110401 | 65 | 293 | 1.0 | 3.0 | 0.00 | 0.02 | 0.00 | 98 | 1011.9 |
| 20260901105859 | 65 | 305 | 0.0 | 1.0 | 0.00 | 0.02 | 0.00 | 98 | 1011.8 |
| 20260901105403 | 65 | 30 | 0.0 | 3.0 | 0.00 | 0.02 | 0.00 | 98 | 1011.7 |
| 20260901104900 | 65 | 343 | 0.0 | 3.0 | 0.00 | 0.02 | 0.00 | 98 | 1011.7 |
| 20260901104359 | 65 | 24 | 0.0 | 4.0 | 0.00 | 0.02 | 0.00 | 97 | 1011.6 |
| 20260901103900 | 65 | 319 | 0.0 | 4.0 | 0.00 | 0.02 | 0.00 | 97 | 1011.7 |
| 20260901103359 | 65 | 316 | 0.0 | 2.0 | 0.00 | 0.02 | 0.00 | 97 | 1011.8 |
| 20260901102402 | 65 | 312 | 0.0 | 5.0 | 0.00 | 0.02 | 0.00 | 97 | 1011.7 |
| 20260901101857 | 65 | 329 | 0.0 | 3.0 | 0.00 | 0.02 | 0.00 | 97 | 1011.8 |
| 20260901101357 | 65 | 21 | 0.0 | 3.0 | 0.00 | 0.02 | 0.00 | 97 | 1011.7 |
| 20260901100858 | 65 | 351 | 0.0 | 3.0 | 0.00 | 0.02 | 0.00 | 97 | 1011.6 |
| 20260901100356 | 65 | 344 | 0.0 | 2.0 | 0.00 | 0.02 | 0.00 | 97 | 1011.6 |
| 20260901095855 | 65 | 25 | 0.0 | 3.0 | 0.00 | 0.02 | 0.00 | 97 | 1011.6 |
| 20260901095625 | 65 | 58 | 0.0 | 4.0 | 0.00 | 0.02 | 0.00 | 97 | 1011.6 |
| 20260901095121 | 65 | 300 | 1.0 | 4.0 | 0.00 | 0.02 | 0.00 | 97 | 1011.6 |
| 20260901094357 | 66 | 347 | 0.0 | 5.0 | 0.00 | 0.02 | 0.00 | 97 | 1011.6 |
| 20260901094128 | 66 | 31 | 0.0 | 5.0 | 0.00 | 0.02 | 0.00 | 97 | 1011.6 |
| 20260901093355 | 66 | 1 | 2.0 | 5.0 | 0.00 | 0.02 | 0.00 | 97 | 1011.5 |
| 20260901092854 | 66 | 25 | 0.0 | 7.0 | 0.00 | 0.02 | 0.00 | 97 | 1011.3 |
| 20260901092355 | 66 | 298 | 1.0 | 7.0 | 0.00 | 0.02 | 0.00 | 97 | 1011.3 |
| 20260901091853 | 66 | 306 | 1.0 | 7.0 | 0.00 | 0.02 | 0.00 | 97 | 1011.4 |
| 20260901091352 | 66 | 327 | 2.0 | 7.0 | 0.00 | 0.02 | 0.00 | 97 | 1011.3 |
| 20260901090853 | 66 | 355 | 1.0 | 9.0 | 0.00 | 0.02 | 0.00 | 97 | 1011.3 |
| 20260901090352 | 67 | 278 | 1.0 | 9.0 | 0.00 | 0.02 | 0.00 | 97 | 1011.1 |
| 20260901085850 | 67 | 21 | 1.0 | 5.0 | 0.00 | 0.02 | 0.00 | 97 | 1011.0 |
| 20260901085351 | 67 | 15 | 0.0 | 4.0 | 0.00 | 0.02 | 0.00 | 97 | 1011.0 |
| 20260901084852 | 68 | 313 | 1.0 | 9.0 | 0.00 | 0.02 | 0.00 | 97 | 1010.9 |
| 20260901084351 | 68 | 295 | 1.0 | 9.0 | 0.00 | 0.02 | 0.00 | 97 | 1010.9 |
| 20260901083850 | 68 | 292 | 1.0 | 5.0 | 0.00 | 0.02 | 0.00 | 97 | 1010.9 |
| 20260901083350 | 68 | 336 | 1.0 | 6.0 | 0.00 | 0.02 | 0.00 | 97 | 1010.8 |
| 20260901082850 | 68 | 276 | 1.0 | 6.0 | 0.00 | 0.02 | 0.00 | 97 | 1010.7 |
| 20260901082349 | 68 | 350 | 1.0 | 6.0 | 0.00 | 0.02 | 0.00 | 97 | 1010.7 |
| 20260901082121 | 68 | 320 | 3.0 | 6.0 | 0.00 | 0.02 | 0.00 | 97 | 1010.7 |
| 20260901080847 | 68 | 309 | 2.0 | 7.0 | 0.00 | 0.02 | 0.00 | 97 | 1010.7 |
| 20260901080346 | 69 | 8 | 1.0 | 4.0 | 0.00 | 0.02 | 0.00 | 97 | 1010.7 |
| 20260901075845 | 69 | 309 | 1.0 | 4.0 | 0.00 | 0.02 | 0.00 | 97 | 1010.6 |
| 20260901075346 | 69 | 312 | 0.0 | 3.0 | 0.00 | 0.02 | 0.00 | 97 | 1010.6 |
| 20260901074845 | 69 | 316 | 1.0 | 3.0 | 0.00 | 0.02 | 0.00 | 97 | 1010.5 |
| 20260901074345 | 69 | 324 | 1.0 | 3.0 | 0.00 | 0.02 | 0.00 | 97 | 1010.6 |
| 20260901073845 | 69 | 316 | 0.0 | 4.0 | 0.00 | 0.02 | 0.00 | 97 | 1010.5 |
| 20260901073345 | 69 | 310 | 1.0 | 4.0 | 0.00 | 0.02 | 0.00 | 97 | 1010.5 |
| 20260901072844 | 69 | 305 | 1.0 | 5.0 | 0.00 | 0.02 | 0.00 | 97 | 1010.4 |
| 20260901072342 | 69 | 305 | 2.0 | 5.0 | 0.00 | 0.02 | 0.00 | 97 | 1010.4 |
| 20260901072110 | 69 | 322 | 2.0 | 4.0 | 0.00 | 0.02 | 0.00 | 97 | 1010.3 |
| 20260901071340 | 68 | 288 | 2.0 | 5.0 | 0.00 | 0.02 | 0.00 | 97 | 1010.5 |
| 20260901070839 | 67 | 272 | 2.0 | 5.0 | 0.00 | 0.02 | 0.00 | 97 | 1010.4 |
| 20260901070559 | 66 | 296 | 3.0 | 4.0 | 0.00 | 0.02 | 0.00 | 96 | 1010.3 |
| 20260901065832 | 66 | 275 | 2.0 | 3.0 | 0.00 | 0.02 | 0.00 | 96 | 1010.3 |
| 20260901065332 | 66 | 281 | 0.0 | 1.0 | 0.00 | 0.02 | 0.00 | 96 | 1010.2 |
| 20260901064833 | 66 | 236 | 0.0 | 0.0 | 0.00 | 0.02 | 0.00 | 95 | 1010.1 |
| 20260901064332 | 66 | 28 | 0.0 | 0.0 | 0.00 | 0.02 | 0.00 | 95 | 1010.1 |
| 20260901063832 | 66 | 28 | 0.0 | 0.0 | 0.00 | 0.02 | 0.00 | 95 | 1010.2 |
| 20260901063332 | 66 | 28 | 0.0 | 0.0 | 0.00 | 0.02 | 0.00 | 95 | 1010.2 |
| 20260901062836 | 66 | 28 | 0.0 | 0.0 | 0.00 | 0.02 | 0.00 | 95 | 1010.1 |
| 20260901062604 | 66 | 28 | 0.0 | 0.0 | 0.00 | 0.02 | 0.00 | 95 | 1010.1 |
| 20260901061327 | 67 | 28 | 0.0 | 0.0 | 0.00 | 0.02 | 0.00 | 95 | 1010.2 |
| 20260901060826 | 67 | 28 | 0.0 | 0.0 | 0.00 | 0.02 | 0.00 | 95 | 1010.1 |
| 20260901060327 | 67 | 28 | 0.0 | 0.0 | 0.00 | 0.02 | 0.00 | 95 | 1010.0 |
| 20260901055826 | 67 | 28 | 0.0 | 1.0 | 0.00 | 0.02 | 0.00 | 95 | 1010.1 |
| 20260901055554 | 67 | 28 | 0.0 | 1.0 | 0.00 | 0.02 | 0.00 | 94 | 1010.2 |
| 20260901054827 | 67 | 30 | 0.0 | 1.0 | 0.00 | 0.02 | 0.00 | 94 | 1010.1 |
| 20260901054327 | 67 | 48 | 0.0 | 1.0 | 0.00 | 0.02 | 0.00 | 94 | 1010.1 |
| 20260901053827 | 67 | 48 | 1.0 | 1.0 | 0.00 | 0.02 | 0.00 | 94 | 1010.1 |
| 20260901053325 | 68 | 47 | 0.0 | 0.0 | 0.00 | 0.02 | 0.00 | 94 | 1010.3 |
| 20260901052826 | 68 | 47 | 0.0 | 0.0 | 0.00 | 0.02 | 0.00 | 94 | 1010.3 |
| 20260901052553 | 68 | 45 | 0.0 | 0.0 | 0.00 | 0.02 | 0.00 | 94 | 1010.3 |
| 20260901052054 | 68 | 45 | 0.0 | 0.0 | 0.00 | 0.02 | 0.00 | 94 | 1010.3 |
| 20260901051325 | 68 | 47 | 0.0 | 0.0 | 0.00 | 0.02 | 0.00 | 93 | 1010.4 |
| 20260901051054 | 69 | 47 | 0.0 | 1.0 | 0.00 | 0.02 | 0.00 | 93 | 1010.3 |
| 20260901050326 | 69 | 45 | 0.0 | 2.0 | 0.00 | 0.02 | 0.00 | 94 | 1010.3 |
| 20260901045821 | 69 | 45 | 1.0 | 2.0 | 0.00 | 0.02 | 0.00 | 94 | 1010.5 |
| 20260901045321 | 69 | 52 | 1.0 | 1.0 | 0.00 | 0.02 | 0.00 | 93 | 1010.5 |
| 20260901044822 | 69 | 52 | 0.0 | 1.0 | 0.00 | 0.02 | 0.00 | 93 | 1010.5 |
| 20260901044320 | 69 | 52 | 0.0 | 0.0 | 0.00 | 0.02 | 0.00 | 93 | 1010.5 |
| 20260901043819 | 69 | 52 | 0.0 | 1.0 | 0.00 | 0.02 | 0.00 | 93 | 1010.5 |
| 20260901043319 | 69 | 52 | 0.0 | 2.0 | 0.00 | 0.02 | 0.00 | 92 | 1010.4 |
| 20260901042820 | 70 | 55 | 0.0 | 2.0 | 0.00 | 0.02 | 0.00 | 93 | 1010.5 |
| 20260901042320 | 70 | 290 | 0.0 | 3.0 | 0.00 | 0.02 | 0.00 | 92 | 1010.4 |
| 20260901042047 | 71 | 31 | 0.0 | 3.0 | 0.00 | 0.02 | 0.00 | 92 | 1010.4 |
| 20260901041321 | 71 | 28 | 1.0 | 4.0 | 0.00 | 0.02 | 0.00 | 92 | 1010.5 |
| 20260901040819 | 72 | 357 | 0.0 | 6.0 | 0.00 | 0.02 | 0.00 | 94 | 1010.3 |
| 20260901040318 | 72 | 298 | 3.0 | 9.0 | 0.00 | 0.02 | 0.00 | 94 | 1010.4 |
| 20260901035819 | 72 | 268 | 3.0 | 9.0 | 0.00 | 0.02 | 0.02 | 94 | 1010.2 |
| 20260901035543 | 72 | 247 | 3.0 | 6.0 | 0.00 | 0.02 | 0.02 | 94 | 1010.1 |
| 20260901034818 | 72 | 268 | 3.0 | 6.0 | 0.00 | 0.02 | 0.02 | 94 | 1010.1 |
| 20260901033816 | 72 | 250 | 3.0 | 6.0 | 0.00 | 0.02 | 0.02 | 93 | 1010.0 |
| 20260901033317 | 72 | 268 | 4.0 | 6.0 | 0.00 | 0.02 | 0.02 | 93 | 1010.0 |
| 20260901032819 | 72 | 262 | 3.0 | 6.0 | 0.00 | 0.02 | 0.02 | 93 | 1010.0 |
| 20260901032318 | 72 | 251 | 3.0 | 6.0 | 0.00 | 0.02 | 0.02 | 92 | 1010.0 |
| 20260901031815 | 73 | 252 | 3.0 | 5.0 | 0.00 | 0.02 | 0.02 | 92 | 1010.0 |
| 20260901031316 | 73 | 228 | 3.0 | 7.0 | 0.00 | 0.02 | 0.02 | 92 | 1009.9 |
| 20260901030549 | 73 | 226 | 2.0 | 5.0 | 0.00 | 0.02 | 0.02 | 92 | 1009.9 |
| 20260901025816 | 73 | 216 | 3.0 | 5.0 | 0.00 | 0.02 | 0.02 | 92 | 1010.2 |
| 20260901025549 | 73 | 226 | 2.0 | 5.0 | 0.00 | 0.02 | 0.02 | 92 | 1010.2 |
| 20260901024814 | 73 | 210 | 2.0 | 6.0 | 0.00 | 0.02 | 0.02 | 91 | 1010.2 |
| 20260901024316 | 73 | 243 | 2.0 | 6.0 | 0.00 | 0.02 | 0.02 | 91 | 1010.2 |
| 20260901023812 | 73 | 206 | 3.0 | 6.0 | 0.00 | 0.02 | 0.02 | 91 | 1010.1 |
| 20260901023311 | 74 | 178 | 3.0 | 9.0 | 0.00 | 0.02 | 0.02 | 91 | 1010.2 |
| 20260901022810 | 74 | 212 | 4.0 | 9.0 | 0.00 | 0.02 | 0.02 | 91 | 1010.2 |
| 20260901022312 | 74 | 197 | 4.0 | 9.0 | 0.00 | 0.02 | 0.02 | 91 | 1010.0 |
| 20260901021811 | 74 | 210 | 4.0 | 9.0 | 0.00 | 0.02 | 0.02 | 91 | 1010.0 |
| 20260901021310 | 74 | 228 | 3.0 | 9.0 | 0.00 | 0.02 | 0.02 | 91 | 1010.0 |
| 20260901020811 | 74 | 189 | 4.0 | 7.0 | 0.00 | 0.02 | 0.02 | 91 | 1010.0 |
| 20260901020314 | 74 | 209 | 3.0 | 7.0 | 0.00 | 0.02 | 0.02 | 91 | 1010.1 |
| 20260901020036 | 75 | 212 | 2.0 | 6.0 | 0.00 | 0.02 | 0.02 | 91 | 1010.1 |
| 20260901015308 | 75 | 210 | 2.0 | 6.0 | 0.00 | 0.02 | 0.02 | 91 | 1010.1 |
| 20260901014809 | 75 | 227 | 2.0 | 6.0 | 0.00 | 0.02 | 0.02 | 91 | 1010.3 |
| 20260901014306 | 75 | 230 | 3.0 | 7.0 | 0.00 | 0.02 | 0.02 | 91 | 1010.3 |
| 20260901014032 | 75 | 209 | 4.0 | 10.0 | 0.00 | 0.02 | 0.02 | 90 | 1010.3 |
| 20260901013305 | 75 | 244 | 4.0 | 10.0 | 0.00 | 0.02 | 0.02 | 90 | 1010.2 |
| 20260901012806 | 75 | 261 | 4.0 | 10.0 | 0.00 | 0.02 | 0.02 | 90 | 1010.3 |
| 20260901012530 | 75 | 264 | 4.0 | 10.0 | 0.00 | 0.02 | 0.02 | 90 | 1010.1 |
| 20260901011808 | 75 | 230 | 3.0 | 10.0 | 0.00 | 0.02 | 0.02 | 90 | 1010.0 |
| 20260901011529 | 75 | 214 | 5.0 | 9.0 | 0.00 | 0.02 | 0.02 | 90 | 1010.0 |
| 20260901010805 | 75 | 197 | 4.0 | 9.0 | 0.00 | 0.02 | 0.02 | 90 | 1010.0 |
| 20260901010303 | 75 | 202 | 3.0 | 7.0 | 0.00 | 0.02 | 0.02 | 91 | 1010.0 |
| 20260901010036 | 75 | 245 | 3.0 | 7.0 | 0.00 | 0.02 | 0.02 | 91 | 1009.8 |
| 20260901004806 | 75 | 172 | 3.0 | 9.0 | 0.00 | 0.02 | 0.02 | 90 | 1009.8 |
| 20260901004304 | 75 | 186 | 3.0 | 9.0 | 0.00 | 0.02 | 0.02 | 90 | 1009.8 |
| 20260901004034 | 75 | 212 | 4.0 | 7.0 | 0.00 | 0.02 | 0.02 | 90 | 1009.8 |
| 20260901003302 | 74 | 220 | 4.0 | 7.0 | 0.00 | 0.02 | 0.02 | 90 | 1009.7 |
| 20260901002802 | 74 | 245 | 2.0 | 6.0 | 0.00 | 0.02 | 0.02 | 90 | 1009.7 |
| 20260901002305 | 75 | 193 | 2.0 | 7.0 | 0.00 | 0.02 | 0.02 | 90 | 1009.6 |
| 20260901001801 | 75 | 212 | 1.0 | 7.0 | 0.00 | 0.02 | 0.02 | 90 | 1009.7 |
| 20260901001300 | 75 | 159 | 3.0 | 6.0 | 0.00 | 0.02 | 0.02 | 89 | 1009.7 |
| 20260901000802 | 75 | 189 | 4.0 | 7.0 | 0.00 | 0.02 | 0.02 | 89 | 1009.6 |
| 20260901000300 | 75 | 196 | 1.0 | 9.0 | 0.00 | 0.02 | 0.02 | 89 | 1009.6 |
| 20260831235800 | 75 | 210 | 3.0 | 9.0 | 0.00 | 0.02 | 0.02 | 89 | 1009.7 |
| 20260831235255 | 75 | 176 | 2.0 | 7.0 | 0.00 | 0.02 | 0.02 | 88 | 1009.6 |
| 20260831234755 | 75 | 176 | 2.0 | 7.0 | 0.00 | 0.02 | 0.02 | 88 | 1009.7 |
| 20260831234254 | 75 | 175 | 2.0 | 5.0 | 0.00 | 0.02 | 0.02 | 88 | 1009.7 |
| 20260831233753 | 76 | 178 | 3.0 | 5.0 | 0.00 | 0.02 | 0.02 | 88 | 1009.7 |
| 20260831233251 | 76 | 172 | 2.0 | 9.0 | 0.00 | 0.02 | 0.02 | 88 | 1009.8 |
| 20260831232750 | 76 | 166 | 2.0 | 9.0 | 0.00 | 0.02 | 0.02 | 87 | 1009.9 |
| 20260831232248 | 76 | 192 | 3.0 | 6.0 | 0.00 | 0.02 | 0.02 | 88 | 1009.8 |
| 20260831231749 | 76 | 148 | 1.0 | 6.0 | 0.00 | 0.02 | 0.02 | 87 | 1009.7 |
| 20260831231249 | 76 | 176 | 3.0 | 6.0 | 0.00 | 0.02 | 0.02 | 88 | 1009.8 |
| 20260831230747 | 76 | 152 | 1.0 | 5.0 | 0.00 | 0.02 | 0.02 | 88 | 1009.7 |
| 20260831230511 | 76 | 149 | 2.0 | 5.0 | 0.00 | 0.02 | 0.02 | 88 | 1009.7 |
| 20260831225744 | 76 | 165 | 2.0 | 9.0 | 0.00 | 0.02 | 0.02 | 87 | 1009.8 |
| 20260831225508 | 76 | 162 | 3.0 | 9.0 | 0.00 | 0.02 | 0.02 | 87 | 1009.8 |
| 20260831224743 | 77 | 158 | 3.0 | 7.0 | 0.00 | 0.02 | 0.02 | 87 | 1009.9 |
| 20260831224242 | 76 | 142 | 4.0 | 9.0 | 0.00 | 0.02 | 0.02 | 88 | 1009.9 |
| 20260831223742 | 76 | 182 | 4.0 | 9.0 | 0.00 | 0.02 | 0.02 | 89 | 1009.9 |
| 20260831223246 | 76 | 181 | 2.0 | 7.0 | 0.00 | 0.02 | 0.02 | 91 | 1009.9 |
| 20260831223010 | 75 | 149 | 3.0 | 7.0 | 0.00 | 0.02 | 0.02 | 92 | 1009.8 |
| 20260831221740 | 74 | 106 | 1.0 | 3.0 | 0.00 | 0.02 | 0.02 | 90 | 1009.8 |
| 20260831221241 | 74 | 106 | 1.0 | 3.0 | 0.00 | 0.02 | 0.02 | 89 | 1009.9 |
| 20260831220741 | 74 | 78 | 1.0 | 3.0 | 0.00 | 0.02 | 0.02 | 88 | 1009.8 |
| 20260831220240 | 74 | 65 | 1.0 | 2.0 | 0.00 | 0.02 | 0.02 | 88 | 1009.9 |
| 20260831215739 | 74 | 54 | 0.0 | 2.0 | 0.00 | 0.02 | 0.02 | 88 | 1009.9 |
| 20260831215241 | 74 | 59 | 1.0 | 2.0 | 0.00 | 0.02 | 0.02 | 89 | 1010.0 |
| 20260831214737 | 74 | 93 | 0.0 | 2.0 | 0.00 | 0.02 | 0.02 | 91 | 1009.9 |
| 20260831214501 | 74 | 82 | 0.0 | 3.0 | 0.00 | 0.02 | 0.02 | 91 | 1009.9 |
| 20260831213735 | 73 | 79 | 1.0 | 3.0 | 0.00 | 0.02 | 0.02 | 90 | 1009.9 |
| 20260831213234 | 73 | 76 | 1.0 | 3.0 | 0.00 | 0.02 | 0.02 | 89 | 1010.1 |
| 20260831212736 | 73 | 68 | 1.0 | 3.0 | 0.00 | 0.02 | 0.02 | 90 | 1010.1 |
| 20260831212235 | 73 | 73 | 1.0 | 3.0 | 0.00 | 0.02 | 0.02 | 90 | 1010.1 |
| 20260831211736 | 73 | 71 | 0.0 | 1.0 | 0.00 | 0.02 | 0.02 | 91 | 1010.0 |
| 20260831211233 | 73 | 95 | 0.0 | 2.0 | 0.00 | 0.02 | 0.02 | 92 | 1010.0 |
| 20260831210736 | 72 | 97 | 0.0 | 2.0 | 0.00 | 0.02 | 0.02 | 93 | 1010.1 |
| 20260831210233 | 71 | 103 | 0.0 | 3.0 | 0.00 | 0.02 | 0.02 | 94 | 1010.2 |
| 20260831205733 | 70 | 99 | 1.0 | 6.0 | 0.00 | 0.02 | 0.02 | 94 | 1010.1 |
| 20260831205501 | 70 | 357 | 2.0 | 7.0 | 0.00 | 0.02 | 0.02 | 94 | 1010.2 |
| 20260831205000 | 70 | 90 | 3.0 | 11.0 | 0.00 | 0.02 | 0.02 | 94 | 1010.2 |
| 20260831204234 | 69 | 96 | 7.0 | 11.0 | 0.00 | 0.02 | 0.02 | 94 | 1010.3 |
| 20260831203735 | 69 | 87 | 6.0 | 11.0 | 0.00 | 0.02 | 0.02 | 94 | 1010.3 |
| 20260831203233 | 69 | 103 | 4.0 | 11.0 | 0.00 | 0.02 | 0.02 | 94 | 1010.4 |
| 20260831202732 | 69 | 117 | 5.0 | 11.0 | 0.00 | 0.02 | 0.02 | 94 | 1010.4 |
| 20260831202502 | 69 | 113 | 5.0 | 10.0 | 0.00 | 0.02 | 0.02 | 93 | 1010.5 |
| 20260831201732 | 70 | 75 | 5.0 | 11.0 | 0.00 | 0.02 | 0.02 | 93 | 1010.7 |
| 20260831201233 | 70 | 87 | 5.0 | 11.0 | 0.00 | 0.02 | 0.02 | 93 | 1010.8 |
| 20260831200733 | 70 | 103 | 4.0 | 11.0 | 0.00 | 0.02 | 0.02 | 93 | 1010.8 |
| 20260831200232 | 70 | 107 | 7.0 | 11.0 | 0.00 | 0.02 | 0.02 | 93 | 1010.8 |
| 20260831200006 | 70 | 55 | 4.0 | 12.0 | 0.00 | 0.02 | 0.02 | 93 | 1010.8 |
| 20260831195229 | 70 | 107 | 7.0 | 13.0 | 0.00 | 0.02 | 0.02 | 92 | 1010.8 |
| 20260831194955 | 70 | 114 | 7.0 | 13.0 | 0.00 | 0.02 | 0.02 | 92 | 1010.8 |
| 20260831194229 | 70 | 123 | 8.0 | 13.0 | 0.00 | 0.02 | 0.02 | 92 | 1010.8 |
| 20260831193729 | 71 | 95 | 9.0 | 13.0 | 0.00 | 0.02 | 0.02 | 92 | 1010.7 |
| 20260831193229 | 71 | 93 | 7.0 | 13.0 | 0.00 | 0.02 | 0.02 | 92 | 1010.8 |
| 20260831192729 | 71 | 87 | 8.0 | 12.0 | 0.00 | 0.02 | 0.02 | 91 | 1010.9 |
| 20260831192228 | 71 | 80 | 7.0 | 11.0 | 0.00 | 0.02 | 0.02 | 91 | 1010.7 |
| 20260831191728 | 71 | 86 | 8.0 | 11.0 | 0.00 | 0.02 | 0.02 | 89 | 1010.8 |
| 20260831191228 | 72 | 85 | 6.0 | 11.0 | 0.00 | 0.02 | 0.02 | 88 | 1010.8 |
| 20260831190728 | 73 | 87 | 7.0 | 12.0 | 0.00 | 0.02 | 0.02 | 88 | 1010.9 |
| 20260831190456 | 74 | 116 | 6.0 | 12.0 | 0.00 | 0.02 | 0.02 | 88 | 1011.0 |
| 20260831185728 | 74 | 55 | 5.0 | 12.0 | 0.00 | 0.02 | 0.02 | 88 | 1011.0 |
| 20260831185227 | 74 | 87 | 6.0 | 11.0 | 0.00 | 0.02 | 0.02 | 87 | 1011.1 |
| 20260831184728 | 74 | 51 | 4.0 | 10.0 | 0.00 | 0.02 | 0.02 | 88 | 1011.2 |
| 20260831184227 | 74 | 110 | 5.0 | 10.0 | 0.00 | 0.02 | 0.02 | 89 | 1011.3 |
| 20260831183727 | 72 | 48 | 3.0 | 9.0 | 0.00 | 0.02 | 0.02 | 90 | 1011.3 |
| 20260831183227 | 72 | 102 | 6.0 | 10.0 | 0.00 | 0.02 | 0.02 | 87 | 1011.5 |
| 20260831182954 | 74 | 100 | 2.0 | 10.0 | 0.00 | 0.02 | 0.02 | 85 | 1011.4 |
| 20260831182227 | 78 | 73 | 6.0 | 9.0 | 0.00 | 0.02 | 0.02 | 77 | 1011.4 |
| 20260831181727 | 80 | 68 | 4.0 | 9.0 | 0.00 | 0.02 | 0.02 | 77 | 1011.4 |
| 20260831181226 | 80 | 113 | 3.0 | 7.0 | 0.00 | 0.02 | 0.02 | 79 | 1011.3 |
| 20260831180727 | 79 | 178 | 2.0 | 7.0 | 0.00 | 0.02 | 0.02 | 79 | 1011.4 |
| 20260831180228 | 80 | 190 | 2.0 | 7.0 | 0.00 | 0.02 | 0.02 | 77 | 1011.3 |
| 20260831175726 | 81 | 282 | 1.0 | 9.0 | 0.00 | 0.02 | 0.02 | 79 | 1011.2 |
| 20260831175225 | 80 | 179 | 3.0 | 11.0 | 0.00 | 0.02 | 0.02 | 79 | 1011.4 |
| 20260831174726 | 80 | 202 | 5.0 | 11.0 | 0.00 | 0.02 | 0.02 | 79 | 1011.6 |
| 20260831174226 | 80 | 206 | 4.0 | 9.0 | 0.00 | 0.02 | 0.02 | 80 | 1011.7 |
| 20260831173725 | 80 | 168 | 3.0 | 9.0 | 0.00 | 0.02 | 0.02 | 80 | 1011.7 |
| 20260831173225 | 80 | 149 | 2.0 | 9.0 | 0.00 | 0.02 | 0.02 | 80 | 1011.9 |
| 20260831172728 | 79 | 199 | 2.0 | 9.0 | 0.00 | 0.02 | 0.02 | 81 | 1012.0 |
| 20260831172227 | 79 | 199 | 2.0 | 10.0 | 0.00 | 0.02 | 0.02 | 82 | 1012.2 |
| 20260831171725 | 78 | 195 | 4.0 | 10.0 | 0.00 | 0.02 | 0.02 | 82 | 1012.2 |
| 20260831171227 | 79 | 193 | 5.0 | 10.0 | 0.00 | 0.02 | 0.02 | 83 | 1012.3 |
| 20260831170954 | 78 | 224 | 2.0 | 7.0 | 0.00 | 0.02 | 0.02 | 84 | 1012.3 |
| 20260831170224 | 78 | 278 | 4.0 | 7.0 | 0.00 | 0.02 | 0.02 | 85 | 1012.3 |
| 20260831165722 | 78 | 267 | 4.0 | 6.0 | 0.00 | 0.02 | 0.02 | 87 | 1012.3 |
| 20260831165450 | 77 | 183 | 2.0 | 7.0 | 0.00 | 0.02 | 0.02 | 88 | 1012.3 |
| 20260831164725 | 76 | 234 | 4.0 | 7.0 | 0.00 | 0.02 | 0.02 | 89 | 1012.4 |
| 20260831164451 | 76 | 257 | 2.0 | 5.0 | 0.00 | 0.02 | 0.02 | 90 | 1012.5 |
| 20260831163948 | 75 | 168 | 2.0 | 6.0 | 0.00 | 0.02 | 0.02 | 92 | 1012.5 |
| 20260831163223 | 75 | 210 | 3.0 | 6.0 | 0.00 | 0.02 | 0.02 | 94 | 1012.5 |
| 20260831162724 | 73 | 210 | 1.0 | 5.0 | 0.00 | 0.02 | 0.02 | 95 | 1012.5 |
| 20260831162224 | 72 | 141 | 1.0 | 4.0 | 0.00 | 0.02 | 0.02 | 96 | 1012.6 |
| 20260831161723 | 72 | 169 | 0.0 | 5.0 | 0.00 | 0.02 | 0.02 | 96 | 1012.7 |
| 20260831161450 | 71 | 186 | 3.0 | 6.0 | 0.00 | 0.02 | 0.02 | 96 | 1012.8 |
| 20260831160723 | 71 | 192 | 3.0 | 6.0 | 0.00 | 0.02 | 0.02 | 96 | 1012.9 |
| 20260831160451 | 71 | 204 | 1.0 | 5.0 | 0.00 | 0.02 | 0.02 | 97 | 1012.9 |
| 20260831155951 | 71 | 157 | 1.0 | 5.0 | 0.00 | 0.02 | 0.02 | 97 | 1012.7 |
| 20260831155221 | 71 | 106 | 2.0 | 4.0 | 0.01 | 0.02 | 0.02 | 97 | 1012.9 |
| 20260831154722 | 70 | 154 | 1.0 | 4.0 | 0.01 | 0.02 | 0.02 | 97 | 1013.1 |
| 20260831154222 | 70 | 138 | 2.0 | 4.0 | 0.01 | 0.02 | 0.02 | 97 | 1013.1 |
| 20260831153722 | 69 | 135 | 1.0 | 4.0 | 0.01 | 0.02 | 0.02 | 97 | 1013.2 |
| 20260831153222 | 69 | 134 | 1.0 | 3.0 | 0.01 | 0.02 | 0.02 | 97 | 1013.3 |
| 20260831152221 | 69 | 62 | 1.0 | 5.0 | 0.01 | 0.02 | 0.02 | 97 | 1013.2 |
| 20260831151722 | 69 | 128 | 2.0 | 5.0 | 0.01 | 0.02 | 0.02 | 97 | 1013.2 |
| 20260831151221 | 69 | 123 | 1.0 | 5.0 | 0.01 | 0.02 | 0.02 | 98 | 1013.2 |
| 20260831150715 | 69 | 135 | 1.0 | 5.0 | 0.01 | 0.02 | 0.02 | 98 | 1013.2 |
| 20260831150220 | 69 | 181 | 0.0 | 6.0 | 0.02 | 0.02 | 0.02 | 98 | 1013.3 |
| 20260831145703 | 69 | 151 | 1.0 | 6.0 | 0.02 | 0.00 | 0.02 | 98 | 1013.4 |
| 20260831145203 | 69 | 214 | 2.0 | 4.0 | 0.01 | 0.00 | 0.01 | 98 | 1013.5 |
| 20260831144700 | 69 | 216 | 2.0 | 5.0 | 0.01 | 0.00 | 0.01 | 98 | 1013.4 |
| 20260831144424 | 69 | 190 | 2.0 | 5.0 | 0.01 | 0.00 | 0.01 | 98 | 1013.4 |
| 20260831143700 | 69 | 141 | 3.0 | 5.0 | 0.01 | 0.00 | 0.01 | 98 | 1013.2 |
| 20260831143158 | 68 | 182 | 2.0 | 4.0 | 0.01 | 0.00 | 0.01 | 98 | 1013.3 |
| 20260831142657 | 68 | 176 | 2.0 | 6.0 | 0.01 | 0.00 | 0.01 | 98 | 1013.4 |
| 20260831142150 | 68 | 220 | 3.0 | 6.0 | 0.01 | 0.00 | 0.01 | 98 | 1013.4 |
| 20260831141653 | 68 | 157 | 2.0 | 4.0 | 0.01 | 0.00 | 0.01 | 98 | 1013.5 |
| 20260831141146 | 68 | 236 | 2.0 | 6.0 | 0.01 | 0.00 | 0.01 | 98 | 1013.5 |
| 20260831140645 | 68 | 223 | 0.0 | 6.0 | 0.01 | 0.00 | 0.01 | 98 | 1013.5 |
| 20260831140412 | 68 | 166 | 2.0 | 5.0 | 0.00 | 0.00 | 0.00 | 98 | 1013.5 |
| 20260831135646 | 68 | 203 | 2.0 | 5.0 | 0.00 | 0.00 | 0.00 | 98 | 1013.6 |
| 20260831135146 | 68 | 209 | 1.0 | 3.0 | 0.00 | 0.00 | 0.00 | 98 | 1013.7 |
| 20260831134644 | 68 | 244 | 2.0 | 3.0 | 0.00 | 0.00 | 0.00 | 98 | 1013.7 |
| 20260831134144 | 68 | 247 | 2.0 | 3.0 | 0.00 | 0.00 | 0.00 | 98 | 1013.7 |
| 20260831133643 | 68 | 224 | 1.0 | 4.0 | 0.00 | 0.00 | 0.00 | 98 | 1013.6 |
| 20260831133142 | 68 | 220 | 1.0 | 4.0 | 0.00 | 0.00 | 0.00 | 98 | 1013.3 |
| 20260831132656 | 68 | 188 | 1.0 | 4.0 | 0.00 | 0.00 | 0.00 | 98 | 1013.2 |
| 20260831132254 | 68 | 185 | 0.0 | 4.0 | 0.00 | 0.01 | 0.00 | 98 | 1013.1 |
| 20260831131642 | 68 | 206 | 2.0 | 4.0 | 0.00 | 0.01 | 0.00 | 98 | 1013.1 |
| 20260831131140 | 67 | 189 | 0.0 | 4.0 | 0.00 | 0.01 | 0.00 | 98 | 1013.0 |
| 20260831130640 | 67 | 206 | 1.0 | 4.0 | 0.00 | 0.01 | 0.00 | 98 | 1013.1 |
| 20260831130141 | 67 | 193 | 1.0 | 5.0 | 0.00 | 0.01 | 0.00 | 98 | 1013.0 |
| 20260831125909 | 67 | 204 | 2.0 | 6.0 | 0.00 | 0.01 | 0.00 | 98 | 1013.0 |
| 20260831125141 | 67 | 202 | 2.0 | 6.0 | 0.00 | 0.01 | 0.00 | 98 | 1012.9 |
| 20260831124909 | 67 | 199 | 2.0 | 5.0 | 0.00 | 0.01 | 0.00 | 98 | 1012.9 |
| 20260831124136 | 67 | 183 | 1.0 | 4.0 | 0.00 | 0.01 | 0.00 | 98 | 1012.9 |
| 20260831123659 | 67 | 202 | 2.0 | 6.0 | 0.00 | 0.01 | 0.00 | 98 | 1012.8 |
| 20260831123136 | 67 | 182 | 2.0 | 6.0 | 0.00 | 0.01 | 0.00 | 98 | 1012.7 |
| 20260831122925 | 67 | 173 | 2.0 | 5.0 | 0.00 | 0.02 | 0.00 | 98 | 1012.6 |
| 20260831122136 | 67 | 202 | 3.0 | 7.0 | 0.00 | 0.02 | 0.00 | 98 | 1012.6 |
| 20260831121637 | 67 | 126 | 2.0 | 7.0 | 0.00 | 0.02 | 0.00 | 98 | 1012.4 |
| 20260831121134 | 67 | 117 | 3.0 | 6.0 | 0.00 | 0.02 | 0.00 | 98 | 1012.2 |
| 20260831120634 | 67 | 123 | 3.0 | 6.0 | 0.00 | 0.02 | 0.00 | 98 | 1012.3 |
| 20260831120137 | 67 | 123 | 2.0 | 6.0 | 0.00 | 0.02 | 0.00 | 98 | 1012.4 |
| 20260831115626 | 66 | 138 | 1.0 | 5.0 | 0.00 | 0.02 | 0.00 | 98 | 1012.5 |
| 20260831115126 | 66 | 189 | 3.0 | 5.0 | 0.00 | 0.02 | 0.00 | 98 | 1012.7 |